sat.trackr.live / text

‹ back to catalog

STARLINK-35753

NORAD 66232 · 2025-244AC

PAYLOAD ACTIVE UNKNOWN

§ Identity

Operator
Country
US
Launch date
2025-10-28
Launch site
AFWTR
Launch vehicle
Mass (kg)
RCS (m²)

Purposes: comms

External: N2YO · Heavens-Above · Gunter

§ Orbital elements

Epoch: 2026-09-20T22:14:24.533376Z

Period
93.85 min
Inclination
53.1604°
Eccentricity
0.0000719
Mean motion
15.34402467 rev/d
Perigee alt
462.2 km
Apogee alt
463.2 km
Semi-major
6,840.8 km
B*
5.5659e-4
RAAN
41.4576°
Arg perigee
90.6789°
Mean anomaly
269.4296°
Rev number
5,157

§ Raw data

STARLINK-357531 66232U 25244AC  26263.92667284  .00018477  00000+0  55659-3 0  99982 66232  53.1604  41.4576 0000719  90.6789 269.4296 15.34402467 51575

JSON: /api/v1/satellites/66232 · /tle

For live sub-satellite position, see the globe view (requires WebGL).

§ Visibility from observer

Set your observer location to see the next 7 days of passes ≥ 10°. The values pass through the URL so the page stays shareable.

No JS? Fill the form by hand. The geolocation button needs JavaScript.